FW9692 Weather Reports


time (UTC)temp
C
wind
direction
speed
KPH
gust
KPH
rain 1hr
cm
rain 24hr
cm
rain mn
cm
humidity
%
barometer
mb
20260831050036 30 144 46.7 69.2 0.00 0.00 0.00 43 999.1
20260831044535 30 146 46.7 62.8 0.00 0.00 0.00 41 999.1
20260831043031 30 147 41.8 54.7 0.00 0.00 0.00 38 999.0
20260831041535 31 144 38.6 54.7 0.00 0.00 0.00 37 999.0
20260831040042 31 139 37.0 57.9 0.00 0.00 0.00 35 998.8
20260831034530 31 146 41.8 57.9 0.00 0.00 0.00 35 998.6
20260831033032 32 137 41.8 54.7 0.00 0.00 0.00 34 998.5
20260831031527 32 128 40.2 53.1 0.00 0.00 0.00 33 998.2
20260831030029 32 140 40.2 49.9 0.00 0.00 0.00 33 998.0
20260831024527 33 134 37.0 46.7 0.00 0.00 0.00 33 997.7
20260831023036 33 128 33.8 41.8 0.00 0.00 0.00 33 997.6
20260831021546 33 137 35.4 46.7 0.00 0.00 0.00 32 997.3
20260831020028 34 126 25.7 35.4 0.00 0.00 0.00 27 997.2
20260831014527 35 142 17.7 25.7 0.00 0.00 0.00 24 997.0
20260831013025 35 130 22.5 32.2 0.00 0.00 0.00 24 996.9
20260831011531 35 137 19.3 30.6 0.00 0.00 0.00 23 996.9
20260831010044 35 132 19.3 30.6 0.00 0.00 0.00 23 996.7
20260831004525 36 134 22.5 32.2 0.00 0.00 0.00 23 996.7
20260831003030 36 90 20.9 30.6 0.00 0.00 0.00 24 996.5
20260831001548 36 113 14.5 29.0 0.00 0.00 0.00 24 996.5
20260831000029 36 107 20.9 37.0 0.00 0.00 0.00 24 996.4
20260830234523 36 124 9.7 19.3 0.00 0.00 0.00 21 996.5
20260830233028 36 129 8.0 20.9 0.00 0.00 0.00 21 996.6
20260830231531 37 138 22.5 32.2 0.00 0.00 0.00 21 996.6
20260830230019 37 51 8.0 20.9 0.00 0.00 0.00 21 996.7
20260830224544 36 81 9.7 19.3 0.00 0.00 0.00 21 996.8
20260830223022 36 111 8.0 17.7 0.00 0.00 0.00 22 997.0
20260830221518 36 83 20.9 30.6 0.00 0.00 0.00 22 997.0
20260830220024 36 39 6.4 17.7 0.00 0.00 0.00 22 997.2
20260830214541 36 9 11.3 24.1 0.00 0.00 0.00 23 997.3
20260830213035 36 25 17.7 29.0 0.00 0.00 0.00 22 997.5
20260830203116 36 196 8.0 17.7 0.00 0.00 0.00 25 998.6
20260830201558 35 306 16.1 24.1 0.00 0.00 0.00 25 998.9
20260830200059 36 41 4.8 17.7 0.00 0.00 0.00 26 999.1
20260830194551 35 325 8.0 16.1 0.00 0.00 0.00 29 999.4
20260830193048 35 83 6.4 22.5 0.00 0.00 0.00 29 999.6
20260830191508 35 83 11.3 25.7 0.00 0.00 0.00 30 999.8
20260830181539 33 198 9.7 14.5 0.00 0.00 0.00 33 1000.8
20260830180047 33 131 8.0 19.3 0.00 0.00 0.00 34 1001.0
20260830174531 32 195 9.7 17.7 0.00 0.00 0.00 35 1001.2
20260830173051 32 171 9.7 17.7 0.00 0.00 0.00 36 1001.3
20260830171530 32 234 3.2 12.9 0.00 0.00 0.00 37 1001.4
20260830170032 32 202 14.5 22.5 0.00 0.00 0.00 37 1001.6
20260830164518 32 221 1.6 16.1 0.00 0.00 0.00 38 1001.9
20260830163016 32 142 8.0 12.9 0.00 0.00 0.00 40 1001.9
20260830161512 31 38 6.4 17.7 0.00 0.00 0.00 41 1001.9
20260830160010 31 57 4.8 16.1 0.00 0.00 0.00 42 1001.9
20260830154510 30 36 6.4 12.9 0.00 0.00 0.00 43 1001.9
20260830153005 30 126 3.2 12.9 0.00 0.00 0.00 45 1001.9
20260830151504 29 338 3.2 6.4 0.00 0.00 0.00 46 1001.8
20260830150003 28 9 1.6 4.8 0.00 0.00 0.00 47 1001.7
20260830144558 28 265 0.0 3.2 0.00 0.00 0.00 49 1001.8
20260830143103 27 185 3.2 8.0 0.00 0.00 0.00 50 1001.9
20260830141552 26 93 1.6 8.0 0.00 0.00 0.00 53 1001.9
20260830140101 25 182 6.4 11.3 0.00 0.00 0.00 55 1001.9
20260830134552 25 121 9.7 16.1 0.00 0.00 0.00 56 1001.7
20260830133048 24 139 9.7 16.1 0.00 0.00 0.00 57 1001.7
20260830131523 23 126 11.3 17.7 0.00 0.00 0.00 59 1001.6
20260830130011 23 126 9.7 11.3 0.00 0.00 0.00 59 1001.4
20260830124509 23 117 9.7 14.5 0.00 0.00 0.00 59 1001.2
20260830123007 23 117 6.4 11.3 0.00 0.00 0.00 59 1001.1
20260830121539 23 113 6.4 12.9 0.00 0.00 0.00 58 1001.0
20260830120039 23 103 6.4 11.3 0.00 0.00 0.00 58 1000.9
20260830114547 24 117 6.4 11.3 0.00 0.00 0.00 57 1000.7
20260830113039 24 111 4.8 11.3 0.00 0.00 0.00 56 1000.8
20260830111535 24 113 3.2 9.7 0.00 0.00 0.00 56 1000.8
20260830110041 24 126 3.2 6.4 0.00 0.00 0.00 57 1000.8
20260830104533 24 227 3.2 16.1 0.00 0.00 0.00 57 1001.2
20260830103031 25 130 11.3 19.3 0.00 0.00 0.00 56 1000.8
20260830101529 25 133 16.1 20.9 0.00 0.00 0.00 55 1000.6
20260830100028 25 140 19.3 24.1 0.00 0.00 0.00 55 1000.4
20260830094527 25 137 19.3 24.1 0.00 0.00 0.00 55 1000.4
20260830093023 25 138 20.9 24.1 0.00 0.00 0.00 54 1000.3
20260830091549 25 146 19.3 24.1 0.00 0.00 0.00 54 1000.3
20260830081512 26 138 22.5 29.0 0.00 0.00 0.00 52 1000.5
20260830080011 26 144 22.5 27.4 0.00 0.00 0.00 52 1000.7
20260830074519 27 142 24.1 30.6 0.00 0.00 0.00 51 1000.7
20260830073010 27 146 25.7 35.4 0.00 0.00 0.00 50 1000.8
20260830071515 27 149 24.1 32.2 0.00 0.00 0.00 50 1000.8
20260830070018 27 147 24.1 32.2 0.00 0.00 0.00 49 1000.8
20260830064542 27 146 25.7 32.2 0.00 0.00 0.00 48 1000.9
20260830063020 28 140 27.4 37.0 0.00 0.00 0.00 47 1000.9
20260830061523 28 146 32.2 38.6 0.00 0.00 0.00 47 1000.9
20260830051527 29 149 32.2 43.5 0.00 0.00 0.00 44 1001.1